#timestamp,LO_Frequency,Hit,StdDev 
1643176815.7,286046995.6,P
1643176835.5,286047002.5,N
1643176855.4,286047005.1,N
1643176875.2,286047001.6,N
1643176895.0,286046995.2,N
1643176895.9,286046995.2,N
1643176915.8,286046995.5,N
1643176935.6,286046990.8,N
1643176955.4,286046990.1,N
1643176975.3,286047000.1,N
1643176995.1,286046996.4,N
1643177015.9,286046991.7,N
1643177035.7,286046992.3,N
1643177055.5,286046991.6,N
1643177075.4,286046987.4,N
1643177095.2,286046988.2,N
1643177115.0,286046984.4,N
1643177116.0,286046984.4,N
1643177135.8,286046982.7,N
1643177155.6,286046991.6,N
1643177175.5,286046989.2,N
1643177195.3,286046989.9,N
1643177215.1,286046984.7,N
1643177235.9,286046980.0,N
1643177255.7,286046984.5,N
1643177275.5,286046985.1,N
1643177295.4,286046991.4,N
1643177315.2,286046983.1,N
1643177335.1,286046988.6,N
1643177336.0,286046988.6,N
1643177355.8,286046996.0,N
1643177375.6,286046997.5,N
1643177395.5,286046992.8,N
1643177415.3,286046988.3,N
1643177435.2,286046983.9,Y
1643177455.9,286046999.1,P
1643177475.7,286047002.5,N
1643177495.6,286046997.8,N
1643177515.4,286046995.9,N
1643177535.2,286047002.5,N
1643177555.1,286046998.2,N
1643177556.0,286046998.2,N
1643177575.8,286047005.7,N
1643177595.7,286047002.8,N
1643177615.5,286047004.7,N
1643177635.3,286046998.3,N
1643177655.2,286046995.2,N
1643177675.0,286046993.7,N
1643177675.9,286046993.7,N
1643177695.8,286046993.3,N
1643177715.6,286046994.4,N
1643177735.4,286046990.5,N
1643177755.3,286046989.4,N
1643177775.1,286046998.0,N
1643177795.8,286046995.5,N
1643177815.7,286046999.3,N
1643177835.5,286047002.2,N
1643177855.4,286047008.8,N
1643177875.2,286047008.2,N
1643177895.0,286046999.9,N
1643177895.9,286046999.9,N
1643177915.8,286047000.2,N
1643177935.6,286047003.4,N
1643177955.5,286047008.1,N
1643177975.3,286047001.9,N
1643177995.1,286047003.3,N
1643178015.9,286047007.4,N
1643178035.7,286047002.3,N
1643178055.5,286047008.1,N
1643178075.4,286047001.8,N
1643178095.2,286047000.2,N
1643178115.1,286046997.1,N
1643178116.0,286046997.1,N
1643178135.8,286046998.5,N
1643178155.6,286046998.1,N
1643178175.5,286047000.4,N
1643178195.3,286046999.7,N
1643178215.2,286047005.7,N
1643178235.9,286047004.3,N
1643178255.7,286047001.9,N
1643178275.6,286046999.8,N
1643178295.4,286047000.4,N
1643178315.2,286047002.1,N
1643178335.1,286047010.4,N
1643178336.0,286047010.4,N
1643178355.8,286047005.0,N
1643178375.7,286047001.3,N
1643178395.5,286047001.8,N
1643178415.3,286047001.2,N
1643178435.2,286047002.9,N
1643178455.0,286047004.0,N
1643178455.9,286047004.0,N
1643178475.7,286047008.7,N
1643178495.6,286047009.8,N
1643178515.4,286047009.7,N
1643178535.3,286047006.5,N
1643178555.1,286047007.0,N
1643178556.0,286047007.0,N
1643178575.8,286047010.6,N
1643178595.7,286047013.7,Y
1643178615.5,286047006.0,P
1643178635.3,286047010.1,P
1643178655.2,286047013.0,P
1643178675.0,286047012.8,Y
1643178675.9,286047012.8,P
1643178695.8,286047006.9,N
1643178715.6,286046994.9,N
1643178735.4,286046990.2,N
1643178755.3,286047002.5,N
1643178775.1,286046999.0,N
1643178795.9,286047004.8,N
1643178815.7,286047001.4,N
1643178835.5,286047007.6,N
1643178855.4,286047005.5,N
1643178875.2,286047009.9,N
1643178895.0,286047005.4,N
1643178895.9,286047005.4,N
1643178915.8,286047003.0,N
1643178935.6,286047004.3,N
1643178955.5,286046990.1,N
1643178975.3,286046995.6,N
1643178995.1,286046997.7,N
1643179015.9,286046999.3,N
1643179035.7,286046999.4,N
1643179055.5,286047007.1,N
1643179075.4,286047006.2,N
1643179095.2,286047001.6,N
1643179115.1,286047003.8,N
1643179116.0,286047003.8,N
1643179135.8,286047003.6,N
1643179155.6,286047012.3,N
1643179175.5,286047008.6,N
1643179195.3,286046998.2,N
1643179215.2,286047004.8,N
1643179235.9,286047002.7,N
1643179255.7,286047007.4,N
1643179275.6,286047005.8,N
1643179295.4,286047007.8,N
1643179315.3,286047007.1,N
1643179335.1,286047001.6,N
1643179355.8,286047003.5,N
1643179375.7,286047004.0,N
1643179395.5,286047002.2,N
1643179415.4,286047005.1,N
1643179435.2,286047004.1,N
1643179455.0,286046999.9,N
1643179455.9,286046999.9,N
1643179475.8,286046999.0,N
1643179495.6,286046999.6,N
1643179515.5,286047000.6,N
1643179535.3,286046995.5,N
1643179555.1,286047000.4,N
1643179575.9,286046996.6,N
1643179595.7,286046998.4,N
1643179615.5,286047005.9,N
1643179635.4,286046997.7,N
1643179655.2,286046997.5,N
1643179675.0,286046998.8,N
1643179676.0,286046998.8,N
1643179695.8,286047003.3,N
1643179715.6,286047006.4,N
1643179735.5,286047006.3,N
1643179755.3,286047006.0,N
1643179775.1,286047006.8,N
1643179795.9,286047006.3,N
1643179815.7,286047011.3,Y
1643179835.6,286047008.2,P
1643179855.4,286047013.1,P
1643179875.2,286047008.0,N
1643179895.1,286047008.2,N
1643179896.0,286047008.2,N
1643179915.8,286047016.6,Y
1643179935.6,286047009.7,P
1643179955.5,286047012.8,P
1643179975.3,286047010.4,P
1643179995.2,286046998.1,N
1643180015.9,286046995.9,N
1643180035.7,286046987.5,N
1643180055.6,286046989.4,N
1643180075.4,286046997.0,N
1643180095.2,286046997.4,N
1643180115.1,286046991.4,N
1643180116.0,286046991.4,N
1643180135.8,286046988.1,N
1643180155.7,286046988.3,N
1643180175.5,286046987.1,N
1643180195.3,286046996.2,N
1643180215.2,286046999.2,N
1643180235.0,286047005.0,N
1643180235.9,286047005.0,N
1643180255.8,286047007.8,N
1643180275.6,286047004.4,N
1643180295.4,286046997.5,N
1643180315.3,286047014.5,N
1643180335.1,286046991.6,N
1643180355.8,286046990.5,N
1643180375.7,286046994.4,N
1643180395.5,286046998.3,N
